Lapse_Rate
7.1 7.0 6.9 6.9 6.7 6.6 6.4 6.6 6.2 5.4 5.5 5.6 5.2 4.9 5.3 6.3 6.8 6.9 6.8 6.9 6.6 6.7 6.5 6.4 6.5 6.8 6.7 6.3 6.1 6.3 6.3 6.6
7.0 6.9 6.7 6.6 6.8 6.5 6.3 6.4 6.1 5.8 5.2 5.2 5.6 5.3 5.1 5.5 6.8 6.6 6.6 6.7 6.5 6.6 6.5 6.3 6.4 6.7 6.7 6.2 6.3 6.4 6.5 6.6
7.0 6.9 6.8 6.6 6.5 6.5 6.3 6.3 6.2 5.9 5.8 5.3 5.0 5.3 4.9 5.1 6.3 6.4 6.2 6.3 6.4 6.2 6.1 6.1 6.5 6.7 6.6 6.1 6.4 6.5 6.6 6.4
7.1 7.1 7.0 6.9 6.3 6.1 6.2 6.1 6.3 6.3 6.1 5.8 5.4 4.6 5.1 5.6 6.2 6.3 6.0 5.8 6.1 6.0 5.8 5.9 6.3 6.7 6.6 5.9 6.1 6.4 6.6 6.3
7.4 7.3 7.2 7.0 6.6 5.8 5.5 6.2 6.3 6.2 6.1 5.8 5.1 5.0 5.4 5.4 6.1 6.1 6.2 6.1 6.1 5.9 5.9 6.0 6.3 6.6 6.5 6.0 6.2 6.5 6.5 6.4
7.0 6.9 6.9 6.9 6.6 6.0 5.4 5.8 6.0 6.0 6.0 5.8 5.2 5.0 5.3 6.0 6.1 6.4 6.6 6.3 6.3 6.2 6.0 6.1 6.2 6.7 6.2 6.2 6.1 6.4 6.3 6.2
6.9 7.1 6.8 7.1 6.6 6.2 5.2 5.3 5.9 5.8 5.4 5.5 5.0 5.3 5.5 6.2 6.0 6.4 6.2 6.3 6.1 6.0 5.9 5.8 6.3 6.6 6.3 6.0 6.0 6.2 6.2 6.2
7.1 6.9 6.6 6.7 6.5 6.3 5.6 5.3 5.6 5.5 5.1 5.1 5.1 5.3 5.7 6.1 6.1 6.0 6.1 6.1 6.2 6.1 5.9 5.4 6.0 6.2 6.1 5.9 6.0 6.1 6.2 6.3
6.9 6.8 6.6 6.5 6.4 6.0 5.1 5.0 5.3 5.3 5.0 5.0 5.2 5.2 5.5 5.9 5.8 6.0 6.2 6.1 5.9 5.8 5.5 5.5 5.4 5.8 6.1 6.0 5.7 5.8 6.0 6.1
7.0 6.7 6.5 6.2 5.9 5.9 5.6 5.1 5.3 5.2 5.2 4.9 5.1 5.2 5.4 5.5 5.6 5.8 5.8 5.8 5.8 5.4 5.6 5.5 5.5 5.9 6.2 6.1 5.8 5.5 5.8 5.8
7.1 6.7 6.1 5.7 5.6 5.7 5.6 5.3 5.6 5.4 5.3 5.2 5.4 5.4 5.4 5.4 5.7 5.5 5.3 5.6 5.4 5.4 5.6 5.6 5.5 5.7 6.0 5.7 5.6 5.3 5.5 5.8
7.0 6.6 5.6 5.4 5.5 5.5 5.3 5.2 5.5 5.6 5.4 4.9 5.3 5.1 5.3 5.4 5.4 5.5 4.9 5.5 5.5 5.4 5.3 5.3 5.2 5.0 6.0 5.4 5.4 5.4 5.4 5.5
7.2 6.7 6.3 5.9 5.9 5.1 4.8 5.2 5.4 5.7 5.5 5.4 5.3 5.3 5.4 5.4 5.4 5.2 5.3 5.4 5.6 5.3 5.2 4.8 5.0 4.7 5.3 5.2 5.3 5.3 5.3 5.4
7.5 7.1 6.7 6.1 5.9 5.6 5.3 5.5 5.5 5.6 5.6 5.6 5.6 5.5 5.4 5.4 5.3 5.3 5.2 4.9 5.3 5.4 5.1 5.4 5.0 5.0 5.4 5.0 5.2 5.3 5.5 5.4
7.4 7.3 7.0 6.4 5.9 5.9 5.5 5.3 5.3 5.5 5.5 5.7 5.5 5.4 5.4 5.3 5.2 5.2 5.0 4.6 4.7 4.8 4.9 5.0 5.4 5.6 5.4 5.4 5.3 5.5 5.0 5.0
7.5 7.3 6.9 6.5 6.2 6.2 6.1 5.8 5.7 5.5 5.5 5.5 5.5 5.4 5.3 5.4 5.2 5.1 5.1 4.5 4.5 4.8 4.7 4.6 5.0 5.3 5.3 5.1 4.8 5.2 4.9 5.0
7.6 7.7 7.3 6.6 6.5 6.1 5.8 6.0 5.8 5.6 5.4 5.4 5.3 5.4 5.3 5.1 5.1 5.0 4.9 4.8 4.3 4.5 4.4 4.5 4.6 5.2 5.4 5.5 5.1 5.1 4.7 5.0
7.6 7.7 7.6 7.1 6.7 6.5 6.3 5.8 5.7 5.7 5.7 5.6 5.7 5.6 5.2 5.1 5.2 5.3 5.2 5.1 4.9 4.8 5.1 5.0 4.5 4.6 4.8 4.9 4.9 4.9 5.1 5.4
7.8 7.8 7.7 7.4 6.9 6.6 6.4 6.1 5.9 5.7 5.8 5.9 5.8 5.6 5.4 5.1 5.5 5.2 5.2 5.2 5.1 5.1 5.1 4.6 4.6 4.7 4.8 5.0 4.8 4.9 5.2 5.2
7.9 7.8 7.8 7.6 7.3 6.8 6.3 5.9 5.8 5.7 5.9 6.1 6.2 5.8 5.3 5.3 5.2 5.4 5.3 5.3 5.3 5.0 4.7 4.6 4.7 4.9 4.9 5.1 5.2 5.4 5.3 5.5
Wind_Speed
7 10 12 18 23 22 29 23 30 17 10 13 7 17 20 23 25 29 28 28 23 21 22 24 23 26 29 27 27 25 20 19
7 8 8 8 10 24 31 26 27 30 20 5 1 23 21 23 25 28 27 25 21 21 23 22 21 26 31 29 28 25 22 20
6 8 9 9 11 17 26 21 16 19 20 16 8 19 28 25 23 26 27 24 18 18 21 23 24 32 33 30 24 19 21 18
6 7 7 9 8 11 12 16 19 21 17 16 23 24 26 20 24 25 23 23 18 18 22 24 24 22 23 22 17 19 19 17
6 6 7 9 7 7 7 7 11 15 22 22 23 21 18 19 17 19 18 19 15 15 17 16 17 17 17 17 17 17 17 15
6 6 8 9 7 6 7 6 10 9 18 21 16 13 14 14 13 15 14 15 12 12 12 16 17 17 20 19 17 17 15 16
6 5 6 8 11 7 6 7 7 13 17 21 19 13 12 14 15 14 11 13 12 10 9 9 13 13 19 17 15 15 18 17
6 5 4 7 9 11 9 7 10 11 10 19 26 21 13 10 9 10 11 13 14 12 8 6 6 11 13 15 15 15 18 19
7 5 4 5 6 8 8 8 10 7 10 22 23 21 18 15 11 9 13 15 14 12 9 6 5 8 9 13 14 14 16 18
7 5 5 5 4 5 6 9 8 8 15 20 23 21 21 15 11 10 18 15 11 4 5 4 5 6 7 8 9 12 14 17
8 6 5 4 5 3 5 10 10 9 16 17 20 21 21 15 9 12 19 14 7 7 3 5 3 5 7 6 6 5 10 15
10 6 6 5 4 4 4 6 8 9 9 12 21 18 20 16 10 9 18 11 7 5 6 3 5 5 7 6 5 6 9 9
10 9 7 5 3 5 4 5 6 9 9 14 18 18 17 14 8 6 10 10 11 8 6 10 2 4 4 4 2 2 6 6
10 10 8 5 4 3 2 4 4 7 9 10 15 15 15 11 10 8 9 7 7 6 7 3 2 5 4 3 3 1 1 4
14 11 9 6 6 6 5 5 4 3 8 7 7 11 13 12 8 8 9 9 7 6 6 9 5 2 8 5 3 4 2 3
13 12 10 7 9 8 10 4 5 2 7 7 7 10 10 8 9 8 6 6 7 5 4 3 5 9 2 0 2 5 3 1
13 12 11 9 9 8 9 8 5 5 5 9 10 7 6 8 10 8 9 4 5 6 4 4 4 5 6 2 2 3 2 3
13 13 12 11 11 10 12 13 10 8 8 8 8 8 6 5 7 8 9 9 9 8 12 10 6 6 4 4 4 4 3 3
13 15 15 13 12 12 12 11 12 13 11 9 10 8 5 8 7 8 8 10 12 13 13 6 6 6 8 4 4 4 3 3
15 15 14 13 12 13 12 12 8 8 11 8 9 9 9 8 9 8 9 9 8 9 6 5 6 6 8 6 5 4 4 4
Wind_Direction
155 167 186 189 188 170 135 143 127 101 72 80 328 185 171 147 143 140 141 143 147 141 131 127 116 114 121 120 117 117 116 115
166 148 144 150 167 155 155 166 163 176 184 203 191 205 180 153 142 140 143 146 148 142 135 126 116 130 129 126 124 121 119 121
164 154 152 145 138 152 162 168 185 182 174 162 191 197 195 154 146 144 145 146 150 140 133 122 113 127 130 129 127 129 123 123
171 153 155 146 151 154 162 175 178 175 160 146 173 195 185 151 147 144 145 144 151 144 136 127 119 126 130 122 129 131 130 132
174 162 159 157 162 149 152 157 152 155 159 172 168 187 154 146 146 140 143 146 152 145 139 129 127 123 139 129 136 135 136 138
164 163 168 170 156 164 154 154 162 173 172 176 168 161 150 147 151 147 151 162 153 148 152 144 134 127 137 135 137 141 139 138
138 136 153 169 167 170 170 163 171 174 179 186 167 162 148 153 155 148 152 148 152 154 154 150 136 129 140 135 135 145 143 143
150 145 146 158 182 177 181 172 161 168 186 160 175 154 149 150 152 151 148 152 155 155 143 155 129 124 135 139 141 152 149 146
147 150 166 153 161 170 171 176 163 175 160 145 147 153 153 154 156 158 156 158 151 145 143 156 119 136 137 139 144 157 156 152
146 140 153 147 168 160 164 170 166 168 158 151 156 154 154 156 156 159 159 158 155 151 152 148 147 136 140 148 145 158 165 160
137 132 152 148 165 152 162 158 157 164 161 156 156 157 160 155 160 164 155 157 171 168 156 150 160 135 147 136 141 156 174 166
126 132 139 136 132 162 151 167 156 155 159 160 157 161 163 158 156 158 158 164 173 170 164 167 161 150 135 143 153 162 169 172
139 140 137 142 157 143 162 156 152 152 155 162 161 162 163 163 162 144 165 170 175 173 156 162 127 148 108 99 63 170 170 177
150 144 153 158 139 123 110 134 158 155 153 159 158 164 169 161 170 161 172 166 161 161 162 134 118 174 144 100 130 133 230 207
164 156 163 150 146 120 113 91 95 144 157 157 161 166 173 172 170 173 165 170 164 167 163 165 152 175 162 147 127 206 115 171
158 158 169 160 155 150 154 139 152 143 163 170 177 177 179 167 166 170 155 168 150 158 170 165 133 176 110 141 117 141 170 226
156 163 168 173 166 159 167 159 157 142 160 170 187 182 183 168 164 170 167 167 151 147 188 205 150 150 173 160 184 90 139 136
158 168 174 171 177 170 173 174 171 166 169 175 179 185 193 174 169 174 175 169 169 183 206 204 168 151 161 169 184 154 174 149
166 175 180 177 177 179 180 177 177 178 177 179 177 186 183 197 169 175 175 172 185 204 208 188 170 167 172 186 178 192 141 155
168 178 180 180 179 182 185 182 185 185 184 186 187 193 199 188 195 186 181 178 181 189 190 181 181 186 180 181 196 183 170 183